Regional Weather Roundup
Issued by NWS Sioux Falls, SD

Home | Current Version | Previous Version | Text Only | Print | Product List | Glossary Off
Versions: 1 2 3 4 5 6 7 8 9 10 11 12 13 14 15 16 17 18 19 20 21 22 23 24 25 26 27 28 29 30 31 32 33 34 35 36 37 38 39 40 41 42 43 44 45 46 47 48 49 50

000
ASUS43 KFSD 181402
RWRFSD

WEATHER ROUNDUP FOR SE SOUTH DAKOTA/SW MINNESOTA/NW IOWA
NATIONAL WEATHER SERVICE SIOUX FALLS SD
900 AM CDT WED OCT 18 2017

NOTE: "FAIR" INDICATES FEW OR NO CLOUDS BELOW 12,000 FEET WITH NO
SIGNIFICANT WEATHER AND OR OBSTRUCTIONS TO VISIBILITY.


SDZ038>040-050-052>070-181500-
SOUTHEAST SOUTH DAKOTA

CITY           SKY/WX    TMP DP  RH WIND       PRES   REMARKS
BROOKINGS      CLOUDY    47  43  86 CALM      29.80R
CHAMBERLAIN    NOT AVBL
HURON          MOSUNNY   44  41  89 W6        29.83R
MADISON        FAIR      45  45 100 SW7       29.80R
MITCHELL       MOSUNNY   46  42  86 CALM      29.81R
SIOUX FALLS    CLOUDY    54  46  74 S7        29.79S
WINNER         FAIR      54  32  43 NW7       29.88R
YANKTON          N/A     51  44  77 S7        29.80R
$$

MNZ071-072-080-081-089-090-097-098-181500-
SOUTHWEST MINNESOTA

CITY           SKY/WX    TMP DP  RH WIND       PRES   REMARKS
FAIRMONT       SUNNY     49  45  86 S16       29.84S
JACKSON        SUNNY     50  45  81 S13       29.83R
MARSHALL       CLOUDY    58  45  62 SW17      29.72S
MONTEVIDEO     PTSUNNY   55  46  71 NW7       29.77R
PIPESTONE      CLOUDY    54  45  71 S9        29.78S
REDWOOD FALLS  SUNNY     53  45  74 S10       29.74S
TRACY          SUNNY     56  47  69 SW21G26   29.75S
WORTHINGTON    SUNNY     54  45  71 S13G20    29.81R
$$

IAZ001>003-012>014-020>022-031-032-NEZ013-014-SDZ071-181500-
NORTHWEST IOWA

CITY           SKY/WX    TMP DP  RH WIND       PRES   REMARKS
CHEROKEE       SUNNY     52  48  87 S9        29.85R
DENISON        SUNNY     52  46  82 S12G18    29.92S
ESTHERVILLE    SUNNY     46  46 100 S13       29.84S
LE MARS        SUNNY     54  46  76 S10G16    29.83R HAZE
ORANGE CITY    SUNNY     52  48  87 S12       29.83R
SHELDON        SUNNY     54  46  76 S12       29.81R
SIOUX CITY     SUNNY     48  47  96 E7        29.84F
SPENCER        SUNNY     51  46  83 S7        29.84S
STORM LAKE     SUNNY     52  46  82 S15       29.86S
$$

ABBREVIATIONS USED IN REMARKS
   TC - TEMPERATURE IN CELSIUS
  WCI - WIND CHILL INDEX
   HX - HEAT INDEX
  VSB - VISIBILITY





USA.gov is the U.S. government's official web portal to all federal, state and local government web resources and services.